Weather History for Madison, WI

Change the Weather History Date:

Sunday, January 20, 2013

  Actual Average Record
Temperature  
Mean Temperature 12 °F 18 °F  
Max Temperature 16 °F 26 °F 53 °F (1906)
Min Temperature 7 °F 11 °F -27 °F (1994)
Degree Days  
Heating Degree Days 53 47  
Month to date heating degree days 831 929  
Since 1 July heating degree days 3426 3808  
Cooling Degree Days 0 0  
Month to date cooling degree days 0 0  
Year to date cooling degree days 0 0  
Moisture  
Dew Point -2 °F    
Average Humidity 56    
Maximum Humidity 69    
Minimum Humidity 42    
Precipitation  
Precipitation T in 0.04 in 1.11 in (1898)
Month to date precipitation 0.28 0.80  
Year to date precipitation 0.28 0.80  
Snow  
Snow 0.10 in 0.40 in 9.40 in (1898)
Month to date snowfall 0.1 8.3  
Since 1 July snowfall 23.6 25.9  
Snow Depth 1.00 in    
Sea Level Pressure  
Sea Level Pressure 30.24 in    
Wind  
Wind Speed 8 mph (NW)    
Max Wind Speed 23 mph    
Max Gust Speed 33 mph    
Visibility 10 miles    
Events Snow    
T = Trace of Precipitation, MM = Missing Value Source: NWS Daily Summary

Daily Weather History Graph

Daily Weather History Graph

Search for Another Location

Airport:

Trip Planner

Search our weather history database for the weather conditions in past years. The results will help you decide how hot, cold, wet, or windy it might be!

Date:

Astronomy

Jan. 20, 2013 Rise Set
Actual Time 7:23 AM CST 4:54 PM CST
Civil Twilight 6:52 AM CST 5:25 PM CST
Nautical Twilight 6:17 AM CST 6:00 PM CST
Astronomical Twilight 5:43 AM CST 6:34 PM CST
Moon 11:55 AM CST 1:54 AM CST
Length of Visible Light 10h 33m
Length of Day
9h 31m
Waxing Gibbous, 66% of the Moon is Illuminated
Jan 20
Waxing Gibbous
Jan 26
Full
Feb 3
Last Quarter
Feb 10
New
Feb 17
First Quarter

Hourly Weather History & Observations

Time (CST) Temp. Windchill Dew Point Humidity Pressure Visibility Wind Dir Wind Speed Gust Speed Precip Events Conditions
12:26 AM 14.0 °F -2.0 °F 6.8 °F 73% 30.00 in 1.8 mi WNW 16.1 mph 26.5 mph 0.00 in Snow Light Snow
12:36 AM 14.0 °F -3.0 °F 5.0 °F 67% 30.01 in 3.0 mi NW 18.4 mph 26.5 mph 0.00 in Snow Light Snow
12:53 AM 12.9 °F -3.4 °F -0.0 °F 56% 30.06 in 9.0 mi NW 16.1 mph 28.8 mph 0.00 in   Scattered Clouds
1:53 AM 10.0 °F -6.5 °F -2.0 °F 58% 30.10 in 10.0 mi NW 15.0 mph 26.5 mph N/A   Clear
2:53 AM 9.0 °F -5.1 °F -2.0 °F 61% 30.17 in 10.0 mi NW 10.4 mph 21.9 mph N/A   Clear
3:53 AM 8.1 °F -7.0 °F -2.9 °F 61% 30.20 in 10.0 mi WNW 11.5 mph 19.6 mph N/A   Clear
4:53 AM 8.1 °F -7.7 °F -2.9 °F 61% 30.22 in 10.0 mi NW 12.7 mph 18.4 mph N/A   Clear
5:53 AM 7.0 °F -9.1 °F -2.9 °F 64% 30.25 in 10.0 mi NW 12.7 mph 19.6 mph N/A   Clear
6:53 AM 7.0 °F -9.8 °F -2.9 °F 64% 30.27 in 10.0 mi NW 13.8 mph 21.9 mph N/A   Partly Cloudy
7:53 AM 7.0 °F -6.6 °F -2.9 °F 64% 30.31 in 10.0 mi NW 9.2 mph - N/A   Partly Cloudy
8:53 AM 9.0 °F -4.2 °F -2.0 °F 61% 30.32 in 10.0 mi NNW 9.2 mph - N/A   Partly Cloudy
9:53 AM 9.0 °F -3.2 °F -2.0 °F 61% 30.34 in 10.0 mi NNW 8.1 mph - N/A   Partly Cloudy
10:53 AM 10.9 °F -1.8 °F -0.9 °F 59% 30.35 in 10.0 mi WNW 9.2 mph - N/A   Partly Cloudy
11:53 AM 12.0 °F 1.5 °F -2.0 °F 53% 30.33 in 10.0 mi West 6.9 mph - N/A   Scattered Clouds
12:53 PM 14.0 °F 2.0 °F -2.9 °F 47% 30.30 in 10.0 mi WNW 9.2 mph - N/A   Partly Cloudy
1:53 PM 14.0 °F 2.0 °F -2.9 °F 47% 30.30 in 10.0 mi WNW 9.2 mph - N/A   Mostly Cloudy
2:53 PM 16.0 °F 5.3 °F -2.9 °F 43% 30.29 in 10.0 mi WNW 8.1 mph - N/A   Partly Cloudy
3:53 PM 15.1 °F 3.3 °F -4.0 °F 43% 30.29 in 10.0 mi NW 9.2 mph - N/A   Mostly Cloudy
4:53 PM 12.9 °F 3.8 °F -2.9 °F 49% 30.28 in 10.0 mi WNW 5.8 mph - N/A   Partly Cloudy
5:53 PM 12.0 °F 4.1 °F -2.9 °F 51% 30.29 in 10.0 mi WNW 4.6 mph - N/A   Clear
6:53 PM 10.9 °F 2.9 °F -2.9 °F 54% 30.29 in 10.0 mi WNW 4.6 mph - N/A   Clear
7:53 PM 10.9 °F - -2.9 °F 54% 30.27 in 10.0 mi Calm Calm - N/A   Clear
8:53 PM 10.0 °F - -2.9 °F 56% 30.26 in 10.0 mi Calm Calm - N/A   Clear
9:53 PM 9.0 °F 2.4 °F -2.0 °F 61% 30.25 in 10.0 mi West 3.5 mph - N/A   Clear
10:53 PM 10.0 °F 3.6 °F -0.9 °F 61% 30.23 in 10.0 mi WNW 3.5 mph - N/A   Mostly Cloudy
11:53 PM 10.9 °F -0.8 °F -0.9 °F 59% 30.22 in 10.0 mi WNW 8.1 mph - 0.00 in Snow Light Snow